Weather History for Decatur, AL

Change the Weather History Date:

Friday, February 3, 2012

  Actual Average Record
Temperature  
Mean Temperature 48 °F -  
Max Temperature 60 °F 50 °F 73 °F (1962)
Min Temperature 37 °F 31 °F 0 °F (1951)
Degree Days  
Heating Degree Days 16    
Moisture  
Dew Point 38 °F    
Average Humidity 65    
Maximum Humidity 83    
Minimum Humidity 42    
Precipitation  
Precipitation 0.04 in - - ()
Sea Level Pressure  
Sea Level Pressure 30.28 in    
Wind  
Wind Speed 5 mph (ESE)    
Max Wind Speed 10 mph    
Max Gust Speed -    
Visibility 10 miles    
Events Rain    
Averages and records for this station are not official NWS values.
T = Trace of Precipitation, MM = Missing Value Source: NWS Daily Summary

Daily Weather History Graph

Daily Weather History Graph

Search for Another Location

Airport:

Trip Planner

Search our weather history database for the weather conditions in past years. The results will help you decide how hot, cold, wet, or windy it might be!

Date:

Astronomy

Feb. 03, 2012 Rise Set
Actual Time 6:44 AM CST 5:18 PM CST
Civil Twilight 6:18 AM CST 5:45 PM CST
Nautical Twilight 5:48 AM CST 6:15 PM CST
Astronomical Twilight 5:18 AM CST 6:44 PM CST
Moon 1:24 PM CST (2/3) 3:14 AM CST (2/3)
Length of Visible Light 11h 26m
Length of Day
10h 33m
Waxing Gibbous, 82% of the Moon is Illuminated
Feb 3
Waxing Gibbous
Feb 7
Full
Feb 14
Last Quarter
Feb 21
New
Feb 29
First Quarter

Hourly Weather History & Observations

Time (CST) Temp. Windchill Dew Point Humidity Pressure Visibility Wind Dir Wind Speed Gust Speed Precip Events Conditions
12:53 AM 46.0 °F 43.9 °F 33.1 °F 61% 30.29 in 10.0 mi ENE 4.6 mph - N/A   Clear
1:53 AM 41.0 °F 39.0 °F 35.1 °F 79% 30.30 in 10.0 mi ENE 3.5 mph - N/A   Clear
2:53 AM 41.0 °F - 35.1 °F 79% 30.28 in 10.0 mi Calm Calm - N/A   Clear
3:53 AM 39.9 °F 37.8 °F 35.1 °F 83% 30.27 in 10.0 mi East 3.5 mph - N/A   Clear
4:53 AM 37.9 °F - 33.1 °F 83% 30.29 in 10.0 mi Calm Calm - N/A   Clear
5:53 AM 42.1 °F 38.4 °F 33.1 °F 70% 30.29 in 10.0 mi ENE 5.8 mph - N/A   Clear
6:53 AM 46.0 °F 42.5 °F 33.1 °F 61% 30.30 in 10.0 mi East 6.9 mph - N/A   Clear
7:53 AM 50.0 °F - 35.1 °F 57% 30.32 in 10.0 mi ESE 6.9 mph - N/A   Clear
8:53 AM 54.0 °F - 34.0 °F 47% 30.30 in 10.0 mi ESE 9.2 mph - N/A   Clear
10:53 AM 57.0 °F - 34.0 °F 42% 30.32 in 10.0 mi SE 9.2 mph - N/A   Clear
11:53 AM 57.9 °F - 35.1 °F 42% 30.30 in 10.0 mi SE 8.1 mph - N/A   Partly Cloudy
12:53 PM 59.0 °F - 36.0 °F 42% 30.28 in 10.0 mi SE 8.1 mph - N/A   Clear
1:53 PM 60.1 °F - 39.0 °F 46% 30.27 in 10.0 mi SE 10.4 mph - N/A   Clear
2:53 PM 60.1 °F - 39.0 °F 46% 30.27 in 10.0 mi SE 10.4 mph - N/A   Clear
3:53 PM 59.0 °F - 42.1 °F 53% 30.28 in 10.0 mi SE 8.1 mph - N/A   Scattered Clouds
4:53 PM 57.9 °F - 42.1 °F 56% 30.28 in 10.0 mi SSE 10.4 mph - N/A   Overcast
5:53 PM 55.0 °F - 44.1 °F 67% 30.28 in 10.0 mi South 13.8 mph - 0.00 in Rain Light Rain
6:53 PM 54.0 °F - 44.1 °F 69% 30.26 in 10.0 mi ESE 5.8 mph - 0.00 in Rain Light Rain
7:53 PM 53.1 °F - 45.0 °F 74% 30.25 in 10.0 mi SE 3.5 mph - 0.00 in Rain Light Rain
8:53 PM 53.1 °F - 45.0 °F 74% 30.24 in 10.0 mi East 3.5 mph - 0.00 in   Overcast
9:53 PM 54.0 °F - 45.0 °F 72% 30.23 in 9.0 mi SE 5.8 mph - 0.01 in Rain Light Rain
10:53 PM 53.1 °F - 46.0 °F 77% 30.22 in 8.0 mi ESE 5.8 mph - 0.01 in Rain Light Rain
11:53 PM 53.1 °F - 46.0 °F 77% 30.21 in 9.0 mi SE 6.9 mph - 0.02 in Rain Light Rain